Retour au catalogue

STARLINK-5410

ActifCommunicationsVLEO
NORAD 54807·PAYLOAD·🇺🇸 United States

Lancé Dec 17, 2022 depuis Cape Canaveral Space Force Station

Loading…

Prochains Passages (prochaines 24 heures)

TLE

FraisSource: CelesTrak SupGP

Époque: Sep 15, 2026, 02:32 UTC

1 54807C 22175BB  26258.10604167 -.00030049  00000+0 -88798-3 0  2587
2 54807  53.1584 244.7113 0001358  88.8873  23.7546 15.34399623    16

Suivez STARLINK-5410 en temps réel avec AllMySat

Download on the App Store